Powrót do katalogu

FALCON 9 R/B

AktywnyHEO
NORAD 57046·ROCKET BODY·🇺🇸 United States

Wystrzelony Jun 18, 2023 z Cape Canaveral Space Force Station

Loading…

Następne Przeloty (najbliższe 24 godziny)

TLE

ŚwieżeSource: Space-Track

Epoka: Sep 14, 2026, 11:15 UTC

1 57046U 23086B   26257.46903387  .00000037  00000-0  53915-2 0  9998
2 57046  26.1351 193.7209 7855928 209.7535  61.8380  1.46549078 16959

Śledź FALCON 9 R/B w czasie rzeczywistym z AllMySat

Download on the App Store